Rogers, AR

3:35 PM CDT on May 24, 2017 (GMT -0500)
Rogers Municipal-Carter

Weather History for KROG - March, 2014

Change the Weather History Date:

Sunday, March 23, 2014

  Actual Average Record
Temperature  
Mean Temperature 38 °F -  
Max Temperature 46 °F 57 °F 75 °F (2017)
Min Temperature 30 °F 38 °F 26 °F (2002)
Degree Days  
Heating Degree Days 27    
Moisture  
Dew Point 21 °F    
Average Humidity 49    
Maximum Humidity 64    
Minimum Humidity 37    
Precipitation  
Precipitation 0.00 in - - ()
Sea Level Pressure  
Sea Level Pressure 30.35 in    
Wind  
Wind Speed 11 mph (NNE)    
Max Wind Speed 16 mph    
Max Gust Speed 25 mph    
Visibility 10 miles    
Events Rain    
Averages and records for this station are not official NWS values.
T = Trace of Precipitation, MM = Missing Value Source: NWS Daily Summary

Daily Weather History Graph

Daily Weather History Graph

Search for Another Location

Airport or City:

Trip Planner

Search our weather history database for the weather conditions in past years. The results will help you decide how hot, cold, wet, or windy it might be!

Date:

Astronomy

Mar. 23, 2014 Rise Set
Actual Time 7:15 AM CDT 7:30 PM CDT
Civil Twilight 6:49 AM CDT 7:56 PM CDT
Nautical Twilight 6:19 AM CDT 8:26 PM CDT
Astronomical Twilight 5:49 AM CDT 8:57 PM CDT
Moon 1:40 AM CDT (3/23) 12:05 PM CDT (3/23)
Length of Visible Light 13h 06m
Length of Day
12h 15m
Waning Gibbous, 54% of the Moon is Illuminated
Mar 23
Waning Gibbous
Mar 23
Last Quarter
Mar 30
New
Apr 7
First Quarter
Apr 15
Full

Hourly Weather History & Observations

Time (CDT) Temp. Windchill Dew Point Humidity Pressure Visibility Wind Dir Wind Speed Gust Speed Precip Events Conditions
12:57 AM 41.0 °F 35.2 °F 21.9 °F 47% 30.27 in 10.0 mi North 9.2 mph 20.7 mph N/A   Overcast
1:57 AM 39.9 °F 32.1 °F 21.0 °F 47% 30.30 in 8.0 mi North 13.8 mph 18.4 mph 0.00 in Rain Light Rain
2:57 AM 39.0 °F 31.0 °F 19.9 °F 46% 30.31 in 10.0 mi North 13.8 mph 25.3 mph 0.00 in   Overcast
3:57 AM 37.0 °F 27.7 °F 18.0 °F 46% 30.31 in 10.0 mi NNE 16.1 mph 23.0 mph N/A   Overcast
4:57 AM 35.1 °F 25.9 °F 18.0 °F 50% 30.34 in 10.0 mi North 13.8 mph 18.4 mph N/A   Overcast
5:57 AM 32.0 °F 22.5 °F 19.0 °F 59% 30.35 in 10.0 mi North 12.7 mph - N/A   Clear
6:57 AM 30.0 °F 19.5 °F 19.0 °F 64% 30.39 in 10.0 mi North 13.8 mph 19.6 mph N/A   Clear
7:57 AM 30.0 °F 21.1 °F 19.0 °F 64% 30.41 in 10.0 mi North 10.4 mph - N/A   Clear
8:57 AM 32.0 °F 21.6 °F 19.0 °F 59% 30.42 in 10.0 mi North 15.0 mph 23.0 mph N/A   Clear
9:57 AM 33.1 °F 23.4 °F 19.0 °F 56% 30.44 in 10.0 mi NNE 13.8 mph - N/A   Clear
10:57 AM 36.0 °F 28.0 °F 21.0 °F 55% 30.44 in 10.0 mi North 11.5 mph 18.4 mph N/A   Clear
11:57 AM 39.0 °F 31.8 °F 23.0 °F 53% 30.44 in 10.0 mi North 11.5 mph - N/A   Clear
12:57 PM 42.1 °F 35.7 °F 24.1 °F 49% 30.42 in 10.0 mi NNE 11.5 mph 20.7 mph N/A   Clear
1:57 PM 44.1 °F 39.5 °F 25.0 °F 47% 30.39 in 10.0 mi North 8.1 mph 17.3 mph N/A   Clear
2:57 PM 45.0 °F 40.6 °F 24.1 °F 44% 30.35 in 10.0 mi NNE 8.1 mph - N/A   Clear
3:57 PM 46.0 °F 42.5 °F 24.1 °F 42% 30.33 in 10.0 mi NNW 6.9 mph 17.3 mph N/A   Clear
4:57 PM 46.0 °F 41.9 °F 21.9 °F 39% 30.31 in 10.0 mi North 8.1 mph 16.1 mph N/A   Clear
5:57 PM 46.0 °F 40.6 °F 21.0 °F 37% 30.30 in 10.0 mi NNE 11.5 mph - N/A   Clear
6:57 PM 44.1 °F 40.1 °F 21.0 °F 40% 30.32 in 10.0 mi NNE 6.9 mph - N/A   Clear
7:57 PM 42.1 °F 39.2 °F 21.0 °F 43% 30.32 in 10.0 mi North 4.6 mph - N/A   Clear
8:57 PM 37.9 °F 33.5 °F 21.0 °F 51% 30.33 in 10.0 mi NNE 5.8 mph - N/A   Clear
9:57 PM 37.0 °F 32.4 °F 21.0 °F 52% 30.32 in 10.0 mi NE 5.8 mph - N/A   Clear
10:57 PM 37.9 °F 32.7 °F 19.0 °F 47% 30.30 in 10.0 mi ENE 6.9 mph - N/A   Clear
11:57 PM 37.0 °F 31.6 °F 17.1 °F 44% 30.29 in 10.0 mi East 6.9 mph - N/A   Clear